This demonstration page uses our WeatherBlox Daily Observations layout. Learn more.

Left ArrowRight Arrow

34.02893, -84.19858

Hourly Observations for October 6, 2022

Temp ( °F °C ) Dew Point ( °F °C ) Humidity (%) Winds ( mph kmh ) Pressure ( in mb ) Visibility ( mi km ) Precip ( " mm )
12:53 am 00:53 Clear 49 9.4 44 6.7 83 83 Calm 30.05 1018 10 16 0.00 0.00
1:53 am 01:53 Clear 48 8.9 44 6.7 86 86 Calm 30.05 1018 10 16 0.00 0.00
2:53 am 02:53 Clear 47 8.3 44 6.7 90 90 Calm 30.05 1018 10 16 0.00 0.00
3:53 am 03:53 Clear 46 7.8 45 7.2 96 96 Calm 30.05 1018 10 16 0.00 0.00
4:53 am 04:53 Clear 45 7.2 44 6.7 97 97 Calm 30.05 1018 10 16 0.00 0.00
5:53 am 05:53 Clear 45 7.2 43 6.1 93 93 Calm 30.06 1018 10 16 0.00 0.00
6:53 am 06:53 Clear 44 6.7 43 6.1 96 96 Calm 30.08 1019 10 16 0.00 0.00
7:53 am 07:53 Sunny 43 6.1 42 5.6 97 97 Calm 30.10 1019 10 16 0.00 0.00
8:53 am 08:53 Sunny 54 12.2 46 7.8 74 74 N 3 6 30.10 1019 10 16 0.00 0.00
9:53 am 09:53 Sunny 61 16.1 47 8.3 60 60 NNW 3 6 30.11 1020 10 16 0.00 0.00
10:53 am 10:53 Sunny 66 18.9 47 8.3 50 50 Calm 30.11 1020 10 16 0.00 0.00
11:53 am 11:53 Sunny 69 20.6 47 8.3 45 45 VRB 5 7 30.11 1020 10 16 0.00 0.00
12:53 pm 12:53 Sunny 73 22.8 46 7.8 38 38 N 7 11 30.10 1019 10 16 0.00 0.00
1:53 pm 13:53 Sunny 76 24.4 46 7.8 35 35 VRB 5 7 30.08 1019 10 16 0.00 0.00
2:53 pm 14:53 Sunny 77 25 46 7.8 33 33 NNW 10 17 30.05 1018 10 16 0.00 0.00
3:53 pm 15:53 Sunny 78 25.6 46 7.8 32 32 VRB 3 6 30.04 1017 10 16 0.00 0.00
4:53 pm 16:53 Sunny 77 25 44 6.7 31 31 WNW 9 15 30.04 1017 10 16 0.00 0.00
5:53 pm 17:53 Sunny 76 24.4 38 3.3 25 25 WNW 8 13 30.05 1018 10 16 0.00 0.00
6:53 pm 18:53 Sunny 72 22.2 38 3.3 29 29 WNW 5 7 30.06 1018 10 16 0.00 0.00
7:53 pm 19:53 Clear 64 17.8 39 3.9 40 40 NW 3 6 30.08 1019 10 16 0.00 0.00
8:53 pm 20:53 Clear 57 13.9 43 6.1 59 59 Calm 30.09 1019 10 16 0.00 0.00
9:53 pm 21:53 Clear 55 12.8 45 7.2 69 69 Calm 30.11 1020 10 16 0.00 0.00
10:53 pm 22:53 Clear 54 12.2 46 7.8 74 74 Calm 30.11 1020 10 16 0.00 0.00
11:53 pm 23:53 Clear 52 11.1 47 8.3 83 83 Calm 30.11 1020 10 16 0.00 0.00

Powered by AerisWeather